Weather History for Dubuque, IA

Change the Weather History Date:

Thursday, October 3, 2013

  Actual Average Record
Temperature  
Mean Temperature 68 °F 55 °F  
Max Temperature 76 °F 65 °F 90 °F (1997)
Min Temperature 60 °F 44 °F 27 °F (1987)
Degree Days  
Heating Degree Days 0 11  
Month to date heating degree days 1 31  
Since 1 July heating degree days 139 209  
Cooling Degree Days 3 1  
Month to date cooling degree days 6 3  
Year to date cooling degree days 638 640  
Growing Degree Days 18 (Base 50)    
Moisture  
Dew Point 66 °F    
Average Humidity 87    
Maximum Humidity 100    
Minimum Humidity 74    
Precipitation  
Precipitation 0.18 in 0.09 in 0.74 in (1903)
Month to date precipitation 0.18 0.28  
Year to date precipitation 33.24 29.72  
Snow  
Snow 0.00 in 0.00 in - ()
Month to date snowfall 0.0 0.0  
Since 1 July snowfall 0.0 0.0  
Since 1 September snowfall 0.0 0.0  
Snow Depth 0.00 in    
Sea Level Pressure  
Sea Level Pressure 29.87 in    
Wind  
Wind Speed 8 mph (SE)    
Max Wind Speed 15 mph    
Max Gust Speed 18 mph    
Visibility 4 miles    
Events Fog , Rain , Thunderstorm    
T = Trace of Precipitation, MM = Missing Value Source: NWS Daily Summary

Daily Weather History Graph

Daily Weather History Graph

Search for Another Location

Airport:

Trip Planner

Search our weather history database for the weather conditions in past years. The results will help you decide how hot, cold, wet, or windy it might be!

Date:

Astronomy

Oct. 03, 2013 Rise Set
Actual Time 7:02 AM CDT 6:40 PM CDT
Civil Twilight 6:34 AM CDT 7:08 PM CDT
Nautical Twilight 6:01 AM CDT 7:40 PM CDT
Astronomical Twilight 5:28 AM CDT 8:13 PM CDT
Moon 5:34 AM CDT (10/3) 5:49 PM CDT (10/3)
Length of Visible Light 12h 33m
Length of Day
11h 37m
Waning Crescent, 2% of the Moon is Illuminated
Oct 3
Waning Crescent
Oct 4
New
Oct 11
First Quarter
Oct 18
Full
Oct 26
Last Quarter

Hourly Weather History & Observations

Time (CDT) Temp. Dew Point Humidity Pressure Visibility Wind Dir Wind Speed Gust Speed Precip Events Conditions
12:53 AM 63.0 °F 61.0 °F 93% 29.91 in 8.0 mi SSE 9.2 mph - N/A   Clear
1:53 AM 64.0 °F 62.1 °F 93% 29.91 in 8.0 mi SSE 10.4 mph - N/A   Clear
2:53 AM 62.1 °F 61.0 °F 96% 29.91 in 5.0 mi SSE 6.9 mph - N/A   Clear
3:53 AM 61.0 °F 61.0 °F 100% 29.90 in 5.0 mi South 5.8 mph - N/A   Clear
4:53 AM 63.0 °F 62.1 °F 97% 29.88 in 5.0 mi South 5.8 mph - N/A   Clear
5:53 AM 61.0 °F 61.0 °F 100% 29.90 in 4.0 mi South 5.8 mph - N/A   Clear
6:18 AM 62.6 °F 62.6 °F 100% 29.93 in 3.0 mi North 8.1 mph - N/A   Scattered Clouds
6:27 AM 64.4 °F 64.4 °F 100% 29.92 in 4.0 mi NE 6.9 mph - N/A   Mostly Cloudy
6:53 AM 63.0 °F 63.0 °F 100% 29.91 in 3.0 mi NNE 8.1 mph - N/A   Overcast
7:31 AM 62.6 °F 62.6 °F 100% 29.91 in 2.5 mi ENE 3.5 mph - N/A   Overcast
7:53 AM 63.0 °F 63.0 °F 100% 29.89 in 2.5 mi East 5.8 mph - N/A   Overcast
8:23 AM 64.4 °F 64.4 °F 100% 29.90 in 1.5 mi East 4.6 mph - 0.01 in Rain Rain
8:53 AM 64.0 °F 64.0 °F 100% 29.90 in 1.5 mi NE 5.8 mph - 0.11 in Rain Light Rain
9:07 AM 64.4 °F 64.4 °F 100% 29.91 in 2.0 mi ENE 4.6 mph - 0.00 in Thunderstorm Overcast
9:26 AM 64.4 °F 64.4 °F 100% 29.91 in 2.5 mi East 6.9 mph - 0.00 in   Overcast
9:41 AM 64.4 °F 64.4 °F 100% 29.91 in 2.5 mi East 6.9 mph - 0.00 in Thunderstorm Overcast
9:53 AM 64.0 °F 64.0 °F 100% 29.90 in 3.0 mi East 6.9 mph - 0.00 in   Overcast
10:05 AM 64.4 °F 64.4 °F 100% 29.90 in 1.8 mi Variable 3.5 mph - 0.01 in Rain Rain
10:14 AM 64.4 °F 64.4 °F 100% 29.91 in 3.0 mi ESE 5.8 mph - 0.04 in Rain Light Rain
10:53 AM 66.9 °F 66.9 °F 100% 29.91 in 6.0 mi SE 6.9 mph - 0.04 in   Overcast
11:14 AM 66.2 °F 66.2 °F 100% 29.90 in 5.0 mi SE 8.1 mph - N/A   Overcast
11:42 AM 66.2 °F 66.2 °F 100% 29.90 in 1.8 mi SE 8.1 mph - N/A   Overcast
11:53 AM 66.0 °F 66.0 °F 100% 29.88 in 1.0 mi ESE 6.9 mph - N/A   Overcast
12:01 PM 66.2 °F 66.2 °F 100% 29.88 in 0.5 mi SE 9.2 mph - N/A Fog Fog
12:18 PM 66.2 °F 66.2 °F 100% 29.87 in 0.2 mi ESE 9.2 mph - N/A Fog Fog
12:29 PM 66.2 °F 66.2 °F 100% 29.86 in 0.5 mi ESE 10.4 mph - N/A Fog Fog
12:51 PM 66.2 °F 66.2 °F 100% 29.87 in 0.2 mi ESE 10.4 mph - N/A Fog Fog
12:53 PM 66.9 °F 66.9 °F 100% 29.86 in 0.5 mi ESE 10.4 mph - N/A Fog Fog
1:10 PM 66.2 °F 66.2 °F 100% 29.87 in 1.0 mi SE 10.4 mph - N/A   Overcast
1:18 PM 66.2 °F 66.2 °F 100% 29.87 in 0.8 mi SE 9.2 mph - 0.00 in Rain Light Rain
1:41 PM 68.0 °F 68.0 °F 100% 29.86 in 2.0 mi ESE 9.2 mph - 0.01 in   Overcast
1:53 PM 69.1 °F 69.1 °F 100% 29.84 in 1.8 mi SE 8.1 mph - 0.01 in   Overcast
2:04 PM 69.8 °F 69.8 °F 100% 29.84 in 2.5 mi SE 9.2 mph - N/A   Overcast
2:17 PM 69.8 °F 69.8 °F 100% 29.84 in 3.0 mi SE 8.1 mph - N/A   Overcast
2:24 PM 69.8 °F 69.8 °F 100% 29.84 in 3.0 mi SE 8.1 mph - N/A   Overcast
2:37 PM 69.8 °F 69.8 °F 100% 29.84 in 3.0 mi SE 9.2 mph - N/A   Mostly Cloudy
2:53 PM 71.1 °F 70.0 °F 96% 29.82 in 4.0 mi SE 10.4 mph - N/A   Scattered Clouds
3:25 PM 71.6 °F 69.8 °F 94% 29.83 in 4.0 mi SE 9.2 mph - N/A   Scattered Clouds
3:31 PM 71.6 °F 69.8 °F 94% 29.83 in 4.0 mi SSE 6.9 mph - N/A   Mostly Cloudy
3:48 PM 73.4 °F 69.8 °F 88% 29.83 in 6.0 mi SSE 10.4 mph - N/A   Mostly Cloudy
3:53 PM 73.0 °F 70.0 °F 90% 29.82 in 6.0 mi SE 11.5 mph - N/A   Overcast
4:03 PM 73.4 °F 71.6 °F 94% 29.83 in 7.0 mi SSE 8.1 mph - N/A   Mostly Cloudy
4:53 PM 75.0 °F 66.0 °F 73% 29.81 in 10.0 mi SSW 9.2 mph - N/A   Partly Cloudy
5:53 PM 73.9 °F 66.9 °F 79% 29.82 in 10.0 mi South 4.6 mph - N/A   Partly Cloudy
6:53 PM 70.0 °F 66.0 °F 87% 29.82 in 10.0 mi SE 3.5 mph - N/A   Clear
7:53 PM 68.0 °F 66.0 °F 93% 29.83 in 10.0 mi South 6.9 mph - N/A   Clear
8:29 PM 68.0 °F 66.2 °F 94% 29.86 in 7.0 mi SSW 6.9 mph - 0.01 in Rain , Thunderstorm Light Rain
8:46 PM 69.8 °F 66.2 °F 88% 29.85 in 8.0 mi SSW 12.7 mph 18.4 mph 0.02 in Rain , Thunderstorm Light Thunderstorms and Rain
8:53 PM 69.1 °F 68.0 °F 96% 29.84 in 9.0 mi SSW 12.7 mph - 0.02 in Rain , Thunderstorm Light Thunderstorms and Rain
9:17 PM 69.8 °F 66.2 °F 88% 29.85 in 10.0 mi SSW 9.2 mph - 0.00 in   Mostly Cloudy
9:53 PM 69.1 °F 66.9 °F 93% 29.85 in 10.0 mi SSW 15.0 mph - 0.00 in   Clear
11:53 PM 64.9 °F 64.9 °F 100% 29.87 in 10.0 mi SW 6.9 mph - N/A   Mostly Cloudy